Dewpoint
58 57 58 58 56 56 54 54 52 50 49 49 48 46 46 43 42 40 40 39 38 37
58 58 58 59 57 56 55 53 52 51 50 49 47 45 43 42 42 41 41 39 40 36
58 58 58 57 56 55 54 52 52 52 52 49 44 44 44 43 43 40 39 39 37 35
57 57 57 57 57 56 54 54 52 50 45 44 44 43 43 41 38 38 39 38 37 32
57 57 57 57 53 51 47 46 45 44 44 44 43 42 40 39 41 40 39 37 34 32
54 52 50 47 46 45 45 45 45 44 43 42 41 40 41 42 40 38 37 35 32 30
49 48 47 46 45 46 46 45 44 43 42 41 42 42 41 39 39 37 34 34 32 31
47 47 46 45 45 44 44 43 42 41 42 43 42 40 38 36 36 35 33 32 30 30
46 45 44 44 44 42 42 42 42 41 41 40 38 35 35 36 34 32 31 29 28 27
45 44 42 41 40 39 38 38 38 39 39 38 38 37 34 32 29 28 27 27 27 26
42 39 38 37 37 38 39 39 39 39 35 31 29 28 28 29 27 25 24 25 25 26
40 38 39 39 39 39 39 38 32 29 27 26 25 30 29 28 28 28 27 27 26 25
38 38 39 39 37 33 30 27 24 23 25 28 28 27 27 25 24 24 23 23 22 23
36 34 31 30 28 25 25 26 30 30 28 24 24 25 26 25 22 23 22 19 20 21
Wind_Speed
24 20 16 17 15 15 16 17 17 18 13 13 14 12 9 10 7 5 3 4 9 12
20 21 15 15 15 13 11 11 15 16 14 13 13 12 12 10 9 6 7 9 10 13
20 18 16 12 15 14 12 12 10 7 12 9 15 14 9 8 7 6 5 8 15 15
17 16 14 12 11 12 10 10 9 9 13 16 15 11 9 6 4 6 8 15 17 15
11 10 9 8 9 13 15 18 21 19 16 13 11 10 12 11 8 10 15 19 16 16
13 12 13 15 17 18 19 18 16 16 16 14 13 12 7 8 11 14 16 14 15 17
13 13 14 14 13 13 14 16 15 15 15 13 10 8 10 11 15 16 12 13 16 17
16 15 15 16 15 16 15 15 14 13 10 8 8 7 10 8 12 13 16 17 18 19
17 17 17 17 17 17 16 13 10 8 6 5 6 8 12 10 11 14 17 20 20 21
18 18 18 17 15 14 12 11 9 6 6 7 11 8 4 2 10 14 18 21 21 22
19 18 17 15 13 12 10 9 6 8 5 3 3 6 4 4 10 15 18 20 21 22
18 17 14 12 11 9 8 8 3 2 1 3 2 13 12 10 12 15 18 20 22 24
15 13 9 10 9 6 4 3 1 0 2 3 6 16 13 12 11 14 16 18 21 21
11 9 8 7 6 4 3 1 1 2 3 5 3 3 12 14 10 13 17 20 20 19
Wind_Direction
218 221 218 221 223 201 205 208 205 202 202 205 213 201 167 148 147 149 214 235 250 268
214 218 212 206 219 206 205 196 195 191 193 204 203 144 129 129 120 148 216 238 267 263
213 212 211 200 211 206 208 202 189 174 168 166 114 121 125 132 146 187 235 251 255 250
217 203 202 197 199 209 182 164 142 129 112 122 118 120 124 138 151 199 235 251 249 258
197 171 195 144 116 100 106 107 111 107 112 118 131 147 159 170 206 224 235 243 249 260
108 111 109 110 115 121 127 132 132 133 135 135 155 171 193 210 226 242 246 254 261 266
115 119 121 118 121 120 127 129 129 140 142 154 171 195 214 230 237 243 260 262 262 269
112 113 115 116 115 115 121 128 133 141 154 176 193 220 244 274 278 266 262 261 265 265
118 118 116 118 122 123 125 133 136 138 161 201 233 242 244 254 275 283 282 280 280 278
123 121 122 123 124 127 126 131 149 181 203 222 233 194 172 324 288 282 279 280 282 283
125 125 130 130 129 133 155 175 201 209 199 257 299 105 53 358 294 282 282 284 287 287
132 131 132 136 151 167 189 200 170 164 250 280 293 81 54 355 312 303 302 302 299 300
132 139 147 166 174 143 139 150 166 346 305 30 291 75 51 15 331 317 312 309 306 306
149 142 123 124 131 140 140 116 147 258 328 315 3 19 64 42 344 330 320 307 304 302